XNO474G LFBO-LSZH

Flight info

Callsign XNO474G
Flight time 1h 5m
Altitude 34000
Route MEN DCT NINUN DCT LATAM DCT ETREK DCT LTP DCT SOPLO DCT OMASI DCT KINNI DCT SOSAL DCT KORED N871 BERSU
Aircraft A320/M-SDE3FGHIRWY/LB1

Departure

Time 2026-05-08 06:12
Airport Toulouse-Blagnac Airport (LFBO)

Arrival

Time 2026-05-08 07:18
Airport Zürich Airport (LSZH)
Time Latitude Longitude Altitude Speed Heading
2026-05-08 05:47 43.62909 1.37391 494 ft 0 kts 48°
2026-05-08 06:03 43.62909 1.37390 494 ft 1 kts 48°
2026-05-08 06:03 43.62903 1.37381 481 ft 4 kts 48°
2026-05-08 06:03 43.62885 1.37353 491 ft 4 kts 47°
2026-05-08 06:03 43.62870 1.37331 491 ft 4 kts 42°
2026-05-08 06:04 43.62857 1.37317 490 ft 4 kts 18°
2026-05-08 06:04 43.62831 1.37326 483 ft 3 kts 323°
2026-05-08 06:04 43.62829 1.37328 494 ft 0 kts 322°
2026-05-08 06:06 43.62830 1.37327 494 ft 3 kts 322°
2026-05-08 06:06 43.62886 1.37267 494 ft 13 kts 320°
2026-05-08 06:06 43.62886 1.37163 488 ft 11 kts 236°
2026-05-08 06:07 43.62833 1.37057 494 ft 9 kts 254°
2026-05-08 06:07 43.62868 1.36976 494 ft 14 kts 320°
2026-05-08 06:07 43.62952 1.36890 485 ft 16 kts 323°
2026-05-08 06:07 43.63016 1.36824 494 ft 19 kts 323°
2026-05-08 06:08 43.63131 1.36703 494 ft 23 kts 322°
2026-05-08 06:08 43.63267 1.36563 483 ft 26 kts 323°
2026-05-08 06:08 43.63419 1.36407 491 ft 27 kts 323°
2026-05-08 06:08 43.63537 1.36283 488 ft 21 kts 323°
2026-05-08 06:09 43.63695 1.36119 494 ft 21 kts 323°
2026-05-08 06:09 43.63769 1.36042 486 ft 17 kts 322°
2026-05-08 06:09 43.63817 1.35947 490 ft 11 kts 263°
2026-05-08 06:09 43.63788 1.35882 486 ft 0 kts 233°
2026-05-08 06:10 43.63781 1.35869 494 ft 6 kts 233°
2026-05-08 06:10 43.63746 1.35809 494 ft 12 kts 221°
2026-05-08 06:11 43.63679 1.35822 485 ft 10 kts 144°
2026-05-08 06:11 43.63594 1.35911 494 ft 38 kts 142°
2026-05-08 06:11 43.63178 1.36346 490 ft 107 kts 142°
2026-05-08 06:11 43.62455 1.37100 495 ft 155 kts 142°
2026-05-08 06:12 43.61568 1.38092 909 ft 162 kts 128°
2026-05-08 06:12 43.61338 1.39549 1568 ft 164 kts 75°
2026-05-08 06:12 43.62085 1.40759 2253 ft 174 kts 42°
2026-05-08 06:12 43.63123 1.41785 2603 ft 194 kts 40°
2026-05-08 06:13 43.64279 1.42984 2840 ft 222 kts 41°
2026-05-08 06:13 43.65575 1.44424 3091 ft 253 kts 43°
2026-05-08 06:13 43.66977 1.46043 3724 ft 269 kts 43°
2026-05-08 06:13 43.68357 1.47683 4893 ft 262 kts 43°
2026-05-08 06:14 43.69527 1.49644 5764 ft 269 kts 60°
2026-05-08 06:14 43.70483 1.51877 6679 ft 272 kts 59°
2026-05-08 06:14 43.71474 1.54125 7557 ft 276 kts 59°
2026-05-08 06:14 43.72490 1.56413 8384 ft 282 kts 59°
2026-05-08 06:15 43.73510 1.58751 9251 ft 286 kts 59°
2026-05-08 06:15 43.74535 1.61131 10099 ft 290 kts 59°
2026-05-08 06:15 43.75602 1.63617 10460 ft 313 kts 59°
2026-05-08 06:15 43.76735 1.66258 10788 ft 332 kts 59°
2026-05-08 06:16 43.77930 1.69042 11440 ft 340 kts 59°
2026-05-08 06:16 43.79152 1.71879 12171 ft 346 kts 59°
2026-05-08 06:16 43.80392 1.74755 12905 ft 351 kts 59°
2026-05-08 06:16 43.81652 1.77674 13629 ft 356 kts 59°
2026-05-08 06:17 43.84227 1.83633 14939 ft 365 kts 59°
2026-05-08 06:17 43.85533 1.86669 15588 ft 369 kts 59°
2026-05-08 06:17 43.86850 1.89737 16241 ft 373 kts 59°
2026-05-08 06:18 43.88163 1.92800 16873 ft 377 kts 60°
2026-05-08 06:18 43.89505 1.95942 17500 ft 381 kts 60°
2026-05-08 06:18 43.90863 1.99119 18118 ft 385 kts 60°
2026-05-08 06:18 43.92294 2.02286 18678 ft 390 kts 54°
2026-05-08 06:19 43.94013 2.05207 19235 ft 393 kts 50°
2026-05-08 06:19 43.95794 2.08111 19814 ft 396 kts 50°
2026-05-08 06:19 43.97587 2.11033 20388 ft 400 kts 50°
2026-05-08 06:19 43.99374 2.13943 20941 ft 403 kts 50°
2026-05-08 06:20 44.01198 2.16919 21509 ft 406 kts 50°
2026-05-08 06:20 44.03037 2.19921 22079 ft 409 kts 50°
2026-05-08 06:20 44.04887 2.22948 22638 ft 413 kts 50°
2026-05-08 06:20 44.06751 2.26006 23182 ft 416 kts 50°
2026-05-08 06:21 44.08630 2.29088 23687 ft 420 kts 50°
2026-05-08 06:21 44.10524 2.32199 24119 ft 423 kts 49°
2026-05-08 06:21 44.12427 2.35339 24544 ft 426 kts 49°
2026-05-08 06:21 44.14339 2.38501 24982 ft 428 kts 49°
2026-05-08 06:22 44.16266 2.41685 25397 ft 431 kts 49°
2026-05-08 06:22 44.18176 2.44839 25804 ft 434 kts 48°
2026-05-08 06:22 44.20129 2.48064 26200 ft 436 kts 48°
2026-05-08 06:22 44.22091 2.51305 26582 ft 439 kts 48°
2026-05-08 06:23 44.24061 2.54569 26971 ft 442 kts 48°
2026-05-08 06:23 44.26041 2.57860 27350 ft 444 kts 48°
2026-05-08 06:23 44.28030 2.61171 27727 ft 446 kts 48°
2026-05-08 06:23 44.30030 2.64504 28095 ft 449 kts 47°
2026-05-08 06:24 44.32042 2.67858 28455 ft 452 kts 47°
2026-05-08 06:24 44.34065 2.71232 28808 ft 454 kts 47°
2026-05-08 06:24 44.36069 2.74574 29147 ft 456 kts 47°
2026-05-08 06:24 44.38113 2.77985 29478 ft 459 kts 47°
2026-05-08 06:25 44.40168 2.81422 29800 ft 461 kts 47°
2026-05-08 06:25 44.42231 2.84875 30103 ft 464 kts 47°
2026-05-08 06:25 44.44304 2.88349 30357 ft 466 kts 47°
2026-05-08 06:25 44.46386 2.91843 30611 ft 468 kts 47°
2026-05-08 06:26 44.48476 2.95354 30859 ft 470 kts 47°
2026-05-08 06:26 44.50572 2.98879 31107 ft 472 kts 47°
2026-05-08 06:26 44.52649 3.02377 31356 ft 474 kts 47°
2026-05-08 06:26 44.54755 3.05927 31649 ft 474 kts 48°
2026-05-08 06:27 44.56854 3.09476 32002 ft 473 kts 47°
2026-05-08 06:27 44.58950 3.13026 32335 ft 472 kts 48°
2026-05-08 06:27 44.60950 3.16680 32667 ft 473 kts 54°
2026-05-08 06:27 44.62627 3.20662 32979 ft 474 kts 58°
2026-05-08 06:28 44.64240 3.24705 33314 ft 474 kts 58°
2026-05-08 06:28 44.65854 3.28733 33642 ft 474 kts 58°
2026-05-08 06:28 44.67451 3.32708 33954 ft 474 kts 58°
2026-05-08 06:28 44.69065 3.36723 34039 ft 469 kts 58°
2026-05-08 06:29 44.72224 3.44640 34051 ft 462 kts 58°
2026-05-08 06:29 44.75360 3.52512 34048 ft 461 kts 59°
2026-05-08 06:30 44.78490 3.60381 34051 ft 461 kts 59°
2026-05-08 06:30 44.81590 3.68215 34044 ft 461 kts 59°
2026-05-08 06:31 44.84708 3.76110 34045 ft 461 kts 59°
2026-05-08 06:31 44.87823 3.84011 34045 ft 461 kts 60°
2026-05-08 06:32 44.90924 3.91922 34046 ft 461 kts 60°
2026-05-08 06:32 44.94003 3.99791 34046 ft 461 kts 60°
2026-05-08 06:33 44.97103 4.07718 34053 ft 461 kts 60°
2026-05-08 06:33 45.00192 4.15652 34044 ft 461 kts 60°
2026-05-08 06:34 45.03269 4.23601 34039 ft 461 kts 61°
2026-05-08 06:34 45.06347 4.31546 34032 ft 461 kts 61°
2026-05-08 06:35 45.09407 4.39457 34027 ft 461 kts 61°
2026-05-08 06:35 45.12479 4.47434 34024 ft 462 kts 61°
2026-05-08 06:36 45.15541 4.55427 34024 ft 462 kts 62°
2026-05-08 06:36 45.18599 4.63434 34023 ft 462 kts 62°
2026-05-08 06:37 45.21639 4.71395 34025 ft 462 kts 62°
2026-05-08 06:37 45.24698 4.79423 34023 ft 463 kts 62°
2026-05-08 06:38 45.27753 4.87471 34027 ft 463 kts 62°
2026-05-08 06:38 45.30798 4.95533 34028 ft 463 kts 62°
2026-05-08 06:39 45.33821 5.03544 34033 ft 463 kts 62°
2026-05-08 06:39 45.36864 5.11626 34035 ft 464 kts 62°
2026-05-08 06:40 45.39895 5.19722 34035 ft 464 kts 62°
2026-05-08 06:40 45.42920 5.27832 34036 ft 464 kts 62°
2026-05-08 06:41 45.45943 5.35949 34036 ft 464 kts 62°
2026-05-08 06:41 45.49267 5.43747 34030 ft 464 kts 51°
2026-05-08 06:42 45.53848 5.50206 34025 ft 464 kts 40°
2026-05-08 06:42 45.58666 5.56334 34026 ft 464 kts 41°
2026-05-08 06:43 45.63478 5.62490 34036 ft 465 kts 41°
2026-05-08 06:43 45.68291 5.68662 34034 ft 465 kts 41°
2026-05-08 06:44 45.73069 5.74815 34034 ft 465 kts 41°
2026-05-08 06:44 45.77886 5.81016 34037 ft 466 kts 41°
2026-05-08 06:45 45.82710 5.87212 34041 ft 466 kts 41°
2026-05-08 06:45 45.87527 5.93421 34045 ft 466 kts 41°
2026-05-08 06:46 45.92309 5.99607 34044 ft 466 kts 41°
2026-05-08 06:46 45.97124 6.05845 34049 ft 466 kts 41°
2026-05-08 06:47 46.01935 6.12092 34053 ft 466 kts 41°
2026-05-08 06:47 46.06734 6.18350 34055 ft 466 kts 41°
2026-05-08 06:48 46.11465 6.24634 34054 ft 466 kts 43°
2026-05-08 06:48 46.16073 6.31194 34055 ft 466 kts 44°
2026-05-08 06:49 46.20634 6.37825 34054 ft 465 kts 44°
2026-05-08 06:49 46.25218 6.44424 34052 ft 465 kts 44°
2026-05-08 06:50 46.29795 6.50945 34046 ft 465 kts 44°
2026-05-08 06:50 46.34403 6.57514 34041 ft 465 kts 44°
2026-05-08 06:51 46.38999 6.64119 34045 ft 465 kts 44°
2026-05-08 06:51 46.43583 6.70735 34048 ft 465 kts 44°
2026-05-08 06:52 46.48167 6.77354 34054 ft 465 kts 44°
2026-05-08 06:52 46.52717 6.83943 34058 ft 465 kts 44°
2026-05-08 06:53 46.57135 6.90799 34067 ft 465 kts 51°
2026-05-08 06:53 46.61195 6.98114 34068 ft 465 kts 51°
2026-05-08 06:54 46.65253 7.05434 34073 ft 464 kts 51°
2026-05-08 06:54 46.69280 7.12704 34075 ft 464 kts 51°
2026-05-08 06:55 46.73327 7.20033 34078 ft 464 kts 51°
2026-05-08 06:55 46.77370 7.27371 33773 ft 464 kts 51°
2026-05-08 06:56 46.79382 7.31036 33127 ft 462 kts 51°
2026-05-08 06:56 46.81382 7.34687 32543 ft 459 kts 51°
2026-05-08 06:56 46.83366 7.38314 31987 ft 456 kts 51°
2026-05-08 06:56 46.85312 7.41877 31440 ft 454 kts 51°
2026-05-08 06:57 46.87272 7.45476 30894 ft 451 kts 51°
2026-05-08 06:57 46.89222 7.49061 30353 ft 450 kts 50°
2026-05-08 06:57 46.91163 7.52633 29776 ft 448 kts 50°
2026-05-08 06:57 46.93093 7.56186 29242 ft 444 kts 50°
2026-05-08 06:58 46.95007 7.59711 28728 ft 440 kts 51°
2026-05-08 06:58 46.96897 7.63206 28212 ft 436 kts 51°
2026-05-08 06:58 46.98771 7.66679 27712 ft 432 kts 51°
2026-05-08 06:58 47.00601 7.70070 27228 ft 429 kts 51°
2026-05-08 06:59 47.02445 7.73485 26753 ft 425 kts 51°
2026-05-08 06:59 47.04273 7.76867 26280 ft 421 kts 51°
2026-05-08 06:59 47.06085 7.80221 25815 ft 418 kts 51°
2026-05-08 06:59 47.07881 7.83548 25355 ft 415 kts 51°
2026-05-08 07:00 47.09662 7.86861 24888 ft 412 kts 51°
2026-05-08 07:00 47.11427 7.90154 24421 ft 409 kts 51°
2026-05-08 07:00 47.13142 7.93469 23942 ft 407 kts 56°
2026-05-08 07:00 47.14496 7.97039 23442 ft 404 kts 65°
2026-05-08 07:01 47.15683 8.00768 22930 ft 401 kts 65°
2026-05-08 07:01 47.16859 8.04459 22453 ft 397 kts 65°
2026-05-08 07:01 47.17995 8.08008 21972 ft 394 kts 65°
2026-05-08 07:01 47.19159 8.11642 21444 ft 393 kts 65°
2026-05-08 07:02 47.20350 8.15266 20767 ft 395 kts 60°
2026-05-08 07:02 47.22109 8.18364 20012 ft 399 kts 38°
2026-05-08 07:02 47.24553 8.20274 19271 ft 400 kts 15°
2026-05-08 07:02 47.27271 8.20670 18554 ft 400 kts 352°
2026-05-08 07:03 47.29926 8.19537 17783 ft 399 kts 333°
2026-05-08 07:03 47.32421 8.17720 16981 ft 401 kts 332°
2026-05-08 07:03 47.34911 8.15855 16201 ft 402 kts 331°
2026-05-08 07:03 47.37403 8.13968 15438 ft 403 kts 331°
2026-05-08 07:04 47.39897 8.12078 14705 ft 403 kts 332°
2026-05-08 07:04 47.42391 8.10194 13985 ft 403 kts 332°
2026-05-08 07:04 47.44886 8.08318 13175 ft 401 kts 332°
2026-05-08 07:04 47.47336 8.06482 12409 ft 399 kts 331°
2026-05-08 07:05 47.49882 8.04875 11636 ft 399 kts 342°
2026-05-08 07:05 47.52628 8.04334 10884 ft 400 kts 359°
2026-05-08 07:05 47.55357 8.05040 10160 ft 400 kts 18°
2026-05-08 07:05 47.57805 8.06957 9378 ft 399 kts 37°
2026-05-08 07:06 47.59689 8.09937 8594 ft 396 kts 57°
2026-05-08 07:06 47.60745 8.13626 8175 ft 383 kts 78°
2026-05-08 07:06 47.60847 8.17432 8052 ft 360 kts 100°
2026-05-08 07:06 47.60069 8.20745 8067 ft 335 kts 123°
2026-05-08 07:07 47.58590 8.23206 8070 ft 310 kts 147°
2026-05-08 07:07 47.56710 8.24448 8080 ft 287 kts 169°
2026-05-08 07:07 47.54804 8.24958 8076 ft 270 kts 173°
2026-05-08 07:07 47.53010 8.24921 8076 ft 249 kts 198°
2026-05-08 07:08 47.51589 8.23691 8073 ft 230 kts 229°
2026-05-08 07:08 47.50887 8.21658 8079 ft 223 kts 257°
2026-05-08 07:08 47.50649 8.19390 8078 ft 224 kts 263°
2026-05-08 07:08 47.50488 8.17097 8075 ft 224 kts 263°
2026-05-08 07:09 47.50351 8.14839 7891 ft 223 kts 268°
2026-05-08 07:09 47.50672 8.12615 7537 ft 224 kts 296°
2026-05-08 07:09 47.51675 8.10864 7192 ft 227 kts 324°
2026-05-08 07:09 47.53151 8.10066 6847 ft 230 kts 355°
2026-05-08 07:10 47.54715 8.10464 6529 ft 231 kts 26°
2026-05-08 07:10 47.56057 8.11773 6173 ft 232 kts 36°
2026-05-08 07:10 47.57357 8.13162 6041 ft 231 kts 36°
2026-05-08 07:10 47.58644 8.14540 6051 ft 233 kts 35°
2026-05-08 07:11 47.59956 8.15946 6050 ft 233 kts 36°
2026-05-08 07:11 47.61271 8.17354 6052 ft 233 kts 35°
2026-05-08 07:11 47.62586 8.18759 6058 ft 233 kts 35°
2026-05-08 07:11 47.63902 8.20161 6052 ft 233 kts 35°
2026-05-08 07:12 47.65215 8.21564 6051 ft 233 kts 36°
2026-05-08 07:12 47.66342 8.23254 6054 ft 232 kts 60°
2026-05-08 07:12 47.66827 8.25503 6056 ft 230 kts 89°
2026-05-08 07:12 47.66581 8.27789 5958 ft 227 kts 116°
2026-05-08 07:13 47.65671 8.29659 5821 ft 224 kts 139°
2026-05-08 07:13 47.64525 8.31230 5698 ft 224 kts 139°
2026-05-08 07:13 47.63378 8.32808 5471 ft 224 kts 139°
2026-05-08 07:13 47.62242 8.34374 5186 ft 223 kts 138°
2026-05-08 07:14 47.61101 8.35937 4883 ft 224 kts 138°
2026-05-08 07:14 47.59960 8.37499 4576 ft 223 kts 138°
2026-05-08 07:14 47.58818 8.39064 4267 ft 224 kts 137°
2026-05-08 07:14 47.57677 8.40629 4039 ft 222 kts 137°
2026-05-08 07:15 47.56568 8.42152 3763 ft 223 kts 137°
2026-05-08 07:15 47.55431 8.43714 3421 ft 221 kts 136°
2026-05-08 07:15 47.54328 8.45227 3103 ft 212 kts 136°
2026-05-08 07:15 47.53274 8.46671 2833 ft 202 kts 135°
2026-05-08 07:16 47.52261 8.48059 2577 ft 194 kts 136°
2026-05-08 07:16 47.51298 8.49377 2289 ft 183 kts 136°
2026-05-08 07:16 47.50417 8.50582 2052 ft 163 kts 136°
2026-05-08 07:16 47.49622 8.51671 1831 ft 150 kts 136°
2026-05-08 07:17 47.48875 8.52692 1636 ft 144 kts 136°
2026-05-08 07:17 47.48156 8.53675 1451 ft 142 kts 136°
2026-05-08 07:17 47.47491 8.54589 1396 ft 109 kts 137°
2026-05-08 07:17 47.47052 8.55185 1386 ft 68 kts 136°
2026-05-08 07:18 47.46794 8.55538 1397 ft 28 kts 138°
2026-05-08 07:18 47.46626 8.55667 1402 ft 20 kts 163°
2026-05-08 07:18 47.46503 8.55711 1404 ft 18 kts 165°
2026-05-08 07:18 47.46408 8.55742 1404 ft 12 kts 162°
2026-05-08 07:19 47.46349 8.55802 1403 ft 9 kts 136°
2026-05-08 07:19 47.46298 8.55872 1408 ft 17 kts 137°
2026-05-08 07:19 47.46225 8.55972 1412 ft 10 kts 137°
2026-05-08 07:19 47.46174 8.56000 1406 ft 7 kts 183°
2026-05-08 07:20 47.46078 8.55986 1407 ft 18 kts 187°
2026-05-08 07:20 47.45959 8.55961 1412 ft 18 kts 193°
2026-05-08 07:20 47.45874 8.55918 1412 ft 8 kts 200°
2026-05-08 07:20 47.45828 8.55894 1413 ft 9 kts 199°
2026-05-08 07:21 47.45751 8.55872 1409 ft 11 kts 185°
2026-05-08 07:21 47.45685 8.55861 1410 ft 7 kts 186°
2026-05-08 07:21 47.45641 8.55856 1408 ft 6 kts 184°
2026-05-08 07:21 47.45605 8.55851 1409 ft 7 kts 186°
2026-05-08 07:22 47.45529 8.55840 1408 ft 10 kts 175°
2026-05-08 07:22 47.45497 8.55919 1409 ft 9 kts 96°
2026-05-08 07:22 47.45490 8.55999 1407 ft 6 kts 103°
2026-05-08 07:22 47.45458 8.56008 1413 ft 5 kts 182°
2026-05-08 07:23 47.45427 8.56004 1407 ft 4 kts 186°
2026-05-08 07:23 47.45412 8.56002 1410 ft 0 kts 186°